Ellensburg, WA
on Sunday, December 2, 2012

Sunday
Previous Day Next Day
Daily Summary
 ActualAverage (KYKM)Record (KYKM)
Temperature
Mean Temperature °F 31°F  
Max Temperature 50°F 39°F 64°F (1975)
Min Temperature 30°F 23°F 3°F (2006)
Degree Days
Heating Degree Days 25 34  
Month to date heating degree days 67  
Since 1 July heating degree days 1600  
Cooling Degree Days 0 0  
Month to date cooling degree days 0  
Year to date cooling degree days 472  
Moisture
Dew Point 35°F   
Average Humidity 79    
Maximum Humidity 87    
Minimum Humidity 50    
Precipitation
Precipitation 0.24 in 0.05 in 0.93 in (1980)
Month to date precipitation 0.10  
Year to date precipitation 6.82  
Snow
Snow 0.00 in 0.30 in 7.20 in (1985)
Month to date snowfall 0.6  
Year to date snowfall 12.8  
Since 1 July snowfall 4.2  
Snow Depth in   
Wind
Wind Speed 7 mph   
Max Wind Speed 22 mph   
Max Gust Speed 33 mph   
Visibility 8 miles   
Events Rain   

Key: T is trace of precipitation, MM is missing value
Source: NWS Daily Summary
Time(PST)TemperatureDew PointHumidity Pressure Visibility Wind DirectionWind SpeedGust SpeedPrecipitationEvents Conditions
12:02 AM 44.6°F 37.4°F 76% 29.38 in 10.0 miles East 9.2 mph - N/A   Overcast
12:11 AM 44.6°F 37.4°F 76% 29.38 in 10.0 miles ESE 9.2 mph - N/A   Overcast
12:53 AM 44.1°F 37.0°F 76% 29.34 in 10.0 miles East 9.2 mph - 0.00 in Rain Light Rain
1:53 AM 43.0°F 39.0°F 86% 29.30 in 7.0 miles ESE 9.2 mph - 0.05 in Rain Light Rain
2:18 AM 42.8°F 39.2°F 87% 29.28 in 5.0 miles East 8.1 mph - 0.04 in Rain Rain
2:46 AM 44.6°F 39.2°F 81% 29.26 in 8.0 miles ESE 5.8 mph - 0.07 in Rain Light Rain
2:53 AM 43.0°F 39.0°F 86% 29.25 in 8.0 miles East 5.8 mph - 0.08 in Rain Light Rain
3:53 AM 44.1°F 39.9°F 85% 29.24 in 5.0 miles Calm Calm - 0.05 in Rain Rain
4:16 AM 42.8°F 39.2°F 87% 29.20 in 7.0 miles Calm Calm - 0.04 in Rain Rain
4:53 AM 44.1°F 39.0°F 82% 29.22 in 10.0 miles ENE 3.5 mph - 0.05 in Rain Light Rain
5:33 AM 42.8°F 39.2°F 87% 29.21 in 10.0 miles ENE 5.8 mph - 0.00 in   Overcast
5:53 AM 43.0°F 39.0°F 86% 29.22 in 10.0 miles NE 4.6 mph - 0.00 in   Overcast
6:53 AM 42.1°F 37.9°F 85% 29.24 in 5.0 miles SW 5.8 mph - N/A   Mostly Cloudy
7:05 AM 41.0°F 37.4°F 87% 29.23 in 2.0 miles WSW 3.5 mph - N/A   Mostly Cloudy
7:19 AM 41.0°F 37.4°F 87% 29.22 in 1.0 miles North 4.6 mph - N/A   Mostly Cloudy
7:26 AM 39.2°F 35.6°F 87% 29.22 in 2.0 miles North 3.5 mph - N/A   Mostly Cloudy
7:45 AM 39.2°F 35.6°F 87% 29.24 in 1.8 miles North 5.8 mph - N/A   Mostly Cloudy
7:53 AM 39.9°F 36.0°F 86% 29.26 in 2.5 miles NNW 6.9 mph - N/A   Overcast
8:00 AM 41.0°F 37.4°F 87% 29.26 in 10.0 miles NW 9.2 mph - N/A   Overcast
8:53 AM 43.0°F 37.9°F 82% 29.31 in 10.0 miles West 4.6 mph - 0.01 in   Overcast
9:53 AM 46.0°F 34.0°F 63% 29.35 in 10.0 miles NW 21.9 mph 33.4 mph N/A   Clear
10:53 AM 46.9°F 33.1°F 59% 29.39 in 10.0 miles WNW 21.9 mph - N/A   Clear
11:53 AM 50.0°F 32.0°F 50% 29.43 in 10.0 miles NW 20.7 mph 29.9 mph N/A   Clear
1:53 PM 48.0°F 32.0°F 54% 29.52 in 10.0 miles West 8.1 mph - N/A   Partly Cloudy
2:53 PM 48.9°F 32.0°F 52% 29.56 in 10.0 miles WNW 9.2 mph - N/A   Scattered Clouds
3:53 PM 43.0°F 33.1°F 68% 29.62 in 10.0 miles WSW 4.6 mph - N/A   Mostly Cloudy
4:53 PM 42.1°F 33.1°F 70% 29.65 in 10.0 miles Calm Calm - N/A   Overcast
5:53 PM 36.0°F 30.0°F 79% 29.68 in 10.0 miles West 5.8 mph - N/A   Scattered Clouds
6:53 PM 35.1°F 30.0°F 82% 29.70 in 10.0 miles NNW 3.5 mph - N/A   Clear
7:53 PM 32.0°F 28.0°F 85% 29.73 in 10.0 miles East 5.8 mph - N/A   Clear
8:53 PM 32.0°F 27.0°F 82% 29.75 in 10.0 miles NE 3.5 mph - N/A   Clear
9:53 PM 30.9°F 27.0°F 85% 29.76 in 10.0 miles NNE 3.5 mph - N/A   Clear
10:53 PM 30.9°F 27.0°F 85% 29.80 in 10.0 miles Calm Calm - N/A   Clear
11:53 PM 32.0°F 27.0°F 82% 29.81 in 10.0 miles NNE 3.5 mph - N/A   Overcast
Moon Phase
Dec. 02 Dec. 06 Dec. 13 Dec. 20 Dec. 28
Sunrise:07:29 AM (PST) Moon Rise:08:13 PM (PST)12/2
Sunset:04:14 PM (PST) Moon Set:10:15 AM (PST)12/2

Copyright © 2014 The Weather Underground, Inc.